| time (UTC) | temp F | wind direction | speed MPH | gust MPH | rain 1hr in | rain 24hr in | rain mn in | humidity % | barometer mb |
| 20260904080104 | 54 | 314 | 0.0 | 0.0 | 0.00 | 0.00 | 0.00 | 77 | 1020.4 |
| 20260904074558 | 55 | 306 | 0.0 | 0.0 | 0.00 | 0.00 | 0.00 | 75 | 1020.2 |
| 20260904073105 | 55 | 255 | 0.0 | 0.0 | 0.00 | 0.00 | 0.00 | 73 | 1020.1 |
| 20260904071556 | 56 | 225 | 0.0 | 0.0 | 0.00 | 0.00 | 0.00 | 73 | 1020.0 |
| 20260904070056 | 56 | 273 | 0.0 | 0.0 | 0.00 | 0.00 | 0.00 | 72 | 1019.6 |
| 20260904064607 | 58 | 242 | 0.0 | 3.0 | 0.00 | 0.00 | 0.00 | 68 | 1019.6 |
| 20260904063108 | 59 | 219 | 0.0 | 1.0 | 0.00 | 0.00 | 0.00 | 67 | 1019.5 |
| 20260904061554 | 59 | 225 | 0.0 | 3.0 | 0.00 | 0.00 | 0.00 | 64 | 1019.4 |
| 20260904060108 | 59 | 222 | 0.0 | 1.0 | 0.00 | 0.00 | 0.00 | 64 | 1019.4 |
| 20260904053052 | 59 | 234 | 0.0 | 4.0 | 0.00 | 0.00 | 0.00 | 62 | 1019.6 |
| 20260904051552 | 59 | 238 | 0.0 | 0.0 | 0.00 | 0.00 | 0.00 | 61 | 1019.6 |
| 20260904050056 | 59 | 237 | 0.0 | 7.0 | 0.00 | 0.00 | 0.00 | 59 | 1019.5 |
| 20260904044550 | 58 | 277 | 0.0 | 2.0 | 0.00 | 0.00 | 0.00 | 60 | 1019.5 |
| 20260904043050 | 59 | 287 | 1.0 | 11.0 | 0.00 | 0.00 | 0.00 | 58 | 1019.6 |
| 20260904041552 | 59 | 267 | 1.0 | 13.0 | 0.00 | 0.00 | 0.00 | 56 | 1019.4 |
| 20260904040051 | 60 | 294 | 0.0 | 12.0 | 0.00 | 0.00 | 0.00 | 57 | 1019.5 |
| 20260904034548 | 60 | 239 | 1.0 | 10.0 | 0.00 | 0.00 | 0.00 | 56 | 1019.5 |
| 20260904033045 | 59 | 228 | 0.0 | 8.0 | 0.00 | 0.00 | 0.00 | 56 | 1019.5 |
| 20260904031541 | 60 | 183 | 0.0 | 11.0 | 0.00 | 0.00 | 0.00 | 55 | 1019.8 |
| 20260904030039 | 59 | 237 | 0.0 | 11.0 | 0.00 | 0.00 | 0.00 | 56 | 1020.0 |
| 20260904024536 | 59 | 227 | 0.0 | 11.0 | 0.00 | 0.00 | 0.00 | 57 | 1020.4 |
| 20260904023039 | 57 | 264 | 0.0 | 10.0 | 0.00 | 0.00 | 0.00 | 64 | 1021.0 |
| 20260904021546 | 57 | 290 | 1.0 | 10.0 | 0.00 | 0.00 | 0.00 | 72 | 1021.4 |
| 20260904020032 | 57 | 256 | 0.0 | 13.0 | 0.00 | 0.00 | 0.00 | 71 | 1021.7 |
| 20260904014531 | 57 | 282 | 0.0 | 3.0 | 0.00 | 0.00 | 0.00 | 73 | 1021.9 |
| 20260904013033 | 57 | 279 | 0.0 | 8.0 | 0.00 | 0.00 | 0.00 | 68 | 1021.9 |
| 20260904011528 | 58 | 234 | 1.0 | 10.0 | 0.00 | 0.00 | 0.00 | 65 | 1021.9 |
| 20260904010025 | 57 | 7 | 2.0 | 7.0 | 0.00 | 0.00 | 0.00 | 71 | 1022.1 |
| 20260904004525 | 57 | 283 | 0.0 | 10.0 | 0.00 | 0.01 | 0.00 | 69 | 1022.2 |
| 20260904003024 | 55 | 247 | 1.0 | 8.0 | 0.00 | 0.01 | 0.00 | 77 | 1022.4 |
| 20260904001516 | 55 | 192 | 0.0 | 6.0 | 0.00 | 0.01 | 0.00 | 79 | 1022.5 |
| 20260904000014 | 53 | 292 | 4.0 | 9.0 | 0.00 | 0.01 | 0.00 | 83 | 1022.8 |
| 20260903234510 | 52 | 322 | 0.0 | 7.0 | 0.00 | 0.01 | 0.00 | 86 | 1023.0 |
| 20260903233014 | 52 | 277 | 0.0 | 4.0 | 0.00 | 0.01 | 0.00 | 87 | 1023.1 |
| 20260903231507 | 52 | 282 | 2.0 | 6.0 | 0.00 | 0.01 | 0.00 | 87 | 1023.0 |
| 20260903230005 | 51 | 277 | 2.0 | 8.0 | 0.00 | 0.01 | 0.00 | 87 | 1023.0 |
| 20260903224503 | 51 | 254 | 3.0 | 7.0 | 0.00 | 0.01 | 0.00 | 88 | 1023.0 |
| 20260903223103 | 50 | 322 | 4.0 | 9.0 | 0.00 | 0.01 | 0.00 | 89 | 1022.8 |
| 20260903221555 | 50 | 309 | 0.0 | 5.0 | 0.00 | 0.01 | 0.00 | 89 | 1022.9 |
| 20260903220057 | 49 | 273 | 0.0 | 3.0 | 0.00 | 0.01 | 0.00 | 90 | 1022.6 |
| 20260903214551 | 48 | 308 | 0.0 | 5.0 | 0.00 | 0.01 | 0.00 | 89 | 1022.6 |
| 20260903213102 | 48 | 298 | 0.0 | 6.0 | 0.00 | 0.01 | 0.00 | 90 | 1022.4 |
| 20260903211650 | 47 | 315 | 0.0 | 6.0 | 0.00 | 0.01 | 0.00 | 91 | 1022.4 |
| 20260903210050 | 47 | 285 | 0.0 | 7.0 | 0.00 | 0.01 | 0.00 | 91 | 1022.2 |
| 20260903204545 | 46 | 324 | 1.0 | 5.0 | 0.00 | 0.01 | 0.00 | 91 | 1021.9 |
| 20260903203051 | 46 | 312 | 1.0 | 7.0 | 0.00 | 0.01 | 0.00 | 91 | 1021.9 |
| 20260903201541 | 46 | 322 | 0.0 | 0.0 | 0.00 | 0.01 | 0.00 | 91 | 1021.7 |
| 20260903200040 | 46 | 308 | 0.0 | 0.0 | 0.00 | 0.01 | 0.00 | 91 | 1021.6 |
| 20260903194537 | 46 | 297 | 0.0 | 0.0 | 0.00 | 0.04 | 0.00 | 91 | 1021.5 |
| 20260903193036 | 46 | 228 | 0.0 | 0.0 | 0.00 | 0.04 | 0.00 | 91 | 1021.3 |
| 20260903191540 | 46 | 303 | 2.0 | 5.0 | 0.00 | 0.04 | 0.00 | 91 | 1021.2 |
| 20260903190032 | 46 | 247 | 1.0 | 6.0 | 0.00 | 0.04 | 0.00 | 91 | 1021.1 |
| 20260903184530 | 46 | 277 | 1.0 | 6.0 | 0.00 | 0.05 | 0.00 | 91 | 1021.1 |
| 20260903183030 | 46 | 285 | 1.0 | 5.0 | 0.00 | 0.05 | 0.00 | 90 | 1020.9 |
| 20260903181527 | 47 | 313 | 1.0 | 5.0 | 0.00 | 0.05 | 0.00 | 90 | 1021.0 |
| 20260903180032 | 47 | 273 | 0.0 | 6.0 | 0.00 | 0.05 | 0.00 | 90 | 1020.8 |
| 20260903174523 | 47 | 297 | 1.0 | 7.0 | 0.00 | 0.08 | 0.00 | 90 | 1020.7 |
| 20260903173019 | 47 | 306 | 1.0 | 7.0 | 0.00 | 0.08 | 0.00 | 89 | 1020.6 |
| 20260903171517 | 47 | 289 | 1.0 | 9.0 | 0.00 | 0.08 | 0.00 | 89 | 1020.5 |
| 20260903170017 | 47 | 267 | 2.0 | 7.0 | 0.00 | 0.08 | 0.00 | 89 | 1020.3 |
| 20260903164513 | 47 | 287 | 2.0 | 4.0 | 0.00 | 0.09 | 0.00 | 89 | 1020.2 |
| 20260903163009 | 48 | 284 | 1.0 | 4.0 | 0.00 | 0.09 | 0.00 | 89 | 1020.3 |
| 20260903160008 | 49 | 329 | 0.0 | 3.0 | 0.00 | 0.10 | 0.00 | 89 | 1020.6 |
| 20260903154505 | 49 | 288 | 2.0 | 6.0 | 0.00 | 0.10 | 0.00 | 89 | 1020.8 |
| 20260903153004 | 48 | 320 | 0.0 | 5.0 | 0.00 | 0.10 | 0.00 | 88 | 1020.6 |
| 20260903151503 | 48 | 301 | 1.0 | 6.0 | 0.00 | 0.10 | 0.00 | 87 | 1020.7 |
| 20260903144557 | 49 | 283 | 2.0 | 7.0 | 0.00 | 0.10 | 0.00 | 86 | 1020.6 |
| 20260903143056 | 49 | 239 | 0.0 | 1.0 | 0.00 | 0.10 | 0.00 | 87 | 1020.7 |
| 20260903141553 | 49 | 274 | 1.0 | 5.0 | 0.00 | 0.10 | 0.00 | 86 | 1020.7 |
| 20260903140052 | 49 | 339 | 0.0 | 6.0 | 0.00 | 0.10 | 0.00 | 85 | 1020.7 |
| 20260903134611 | 49 | 311 | 2.0 | 9.0 | 0.00 | 0.16 | 0.10 | 85 | 1020.8 |
| 20260903133053 | 49 | 293 | 0.0 | 5.0 | 0.00 | 0.16 | 0.10 | 85 | 1020.9 |
| 20260903131548 | 49 | 302 | 2.0 | 7.0 | 0.00 | 0.16 | 0.10 | 86 | 1020.7 |
| 20260903130050 | 48 | 289 | 0.0 | 4.0 | 0.00 | 0.16 | 0.10 | 86 | 1020.6 |
| 20260903124552 | 49 | 237 | 1.0 | 5.0 | 0.00 | 0.17 | 0.10 | 86 | 1020.6 |
| 20260903123044 | 49 | 264 | 0.0 | 7.0 | 0.00 | 0.17 | 0.10 | 85 | 1020.5 |
| 20260903121551 | 49 | 294 | 1.0 | 6.0 | 0.00 | 0.17 | 0.10 | 86 | 1020.4 |
| 20260903120056 | 49 | 240 | 1.0 | 9.0 | 0.00 | 0.17 | 0.10 | 85 | 1020.4 |
| 20260903114557 | 49 | 248 | 0.0 | 1.0 | 0.00 | 0.17 | 0.10 | 85 | 1020.4 |
| 20260903113038 | 49 | 299 | 0.0 | 4.0 | 0.00 | 0.17 | 0.10 | 84 | 1020.3 |
| 20260903111538 | 49 | 270 | 0.0 | 6.0 | 0.00 | 0.17 | 0.10 | 84 | 1020.2 |
| 20260903110036 | 49 | 246 | 0.0 | 9.0 | 0.00 | 0.17 | 0.10 | 84 | 1020.1 |
| 20260903104534 | 49 | 298 | 0.0 | 7.0 | 0.00 | 0.17 | 0.10 | 84 | 1019.9 |
| 20260903103032 | 49 | 203 | 1.0 | 8.0 | 0.00 | 0.17 | 0.10 | 83 | 1019.6 |
| 20260903101529 | 50 | 247 | 0.0 | 7.0 | 0.00 | 0.17 | 0.10 | 82 | 1019.4 |
| 20260903100027 | 50 | 260 | 3.0 | 10.0 | 0.00 | 0.17 | 0.10 | 81 | 1019.4 |
| 20260903094524 | 50 | 257 | 3.0 | 8.0 | 0.00 | 0.17 | 0.10 | 80 | 1019.1 |
| 20260903093021 | 50 | 223 | 0.0 | 10.0 | 0.00 | 0.17 | 0.10 | 80 | 1018.9 |
| 20260903091519 | 50 | 239 | 0.0 | 3.0 | 0.00 | 0.17 | 0.10 | 80 | 1018.7 |
| 20260903090119 | 51 | 256 | 3.0 | 9.0 | 0.00 | 0.17 | 0.10 | 78 | 1018.5 |
| 20260903084515 | 51 | 308 | 2.0 | 10.0 | 0.00 | 0.17 | 0.10 | 77 | 1018.2 |
| 20260903083012 | 51 | 263 | 3.0 | 11.0 | 0.00 | 0.17 | 0.10 | 76 | 1017.8 |
| 20260903081511 | 51 | 280 | 1.0 | 7.0 | 0.00 | 0.17 | 0.10 | 76 | 1017.6 |